Location: Newark
(7.0858°N, 171.3717°E)
Time: 03:36:04
(UTC+00:00)

A-11 Canister half - Pass Details

Date: 08 December 2020
Orbit: 1517 x 1683 km, 47.2° (Epoch: 16 January)

Event Time Altitude Azimuth Distance (km) Brightness Sun altitude
Rises 07:47:32 0° 294° (WNW) 4,925 12.3 -21.4°
Reaches altitude 10° 07:51:29 10° 282° (WNW) 3,929 11.9 -22.3°
Maximum altitude 07:59:12 25° 232° (SW) 2,877 11.1 -24.1°
Drops below altitude 10° 08:06:50 10° 180° (S) 3,855 11.3 -25.8°
Sets 08:10:44 0° 167° (SSE) 4,814 11.7 -26.7°
